Location: State Camp
(41.2367°N, 77.7828°W)
Time: 09:22:11
(UTC-05:00)

Daily predictions for brighter satellites

Satellite Brightness Start Highest point End
(mag) Time Altitude Azimuth Time Altitude Azimuth Time Altitude Azimuth
Cosmos 2181 Rocket 4.1 17:01:09 10° S 17:07:31 88° E 17:14:00 10° N
Cosmos 1295 Rocket 4.5 17:01:51 10° N 17:08:00 81° E 17:14:05 10° S
SL-27 R/B 2.5 17:06:40 10° NNW 17:10:20 75° ENE 17:13:57 10° SSE
CZ-2C R/B 3.8 17:07:11 10° N 17:11:40 80° WNW 17:16:09 10° SSW
Meteor 1-18 Rocket 4.5 17:11:52 10° SSE 17:17:18 51° E 17:22:52 10° NNE
Okean 1 4.1 17:14:37 10° SSE 17:18:14 32° E 17:21:52 10° NNE
Cosmos 1844 3.7 17:14:04 10° SSW 17:19:38 90° WSW 17:25:14 10° NNE
Cosmos 1536 4.2 17:16:48 10° NNW 17:20:41 43° W 17:24:33 10° SSW
Abrixas 3.7 17:18:17 10° NW 17:20:49 25° NNE 17:23:15 11° ENE
Cosmos 1346 Rocket 3.7 17:25:49 10° SSE 17:29:09 28° E 17:32:31 10° NNE
ISS -1.5 17:29:49 10° WNW 17:32:28 22° NNW 17:35:07 10° NNE
Cosmos 1544 Rocket 3.6 17:29:08 10° N 17:33:38 87° WSW 17:38:05 10° S
PAYLOAD A 4.2 17:29:53 10° S 17:34:41 73° WSW 17:39:42 10° NNW
Cosmos 2278 Rocket 2.2 17:29:16 10° SSW 17:34:53 74° ESE 17:40:33 10° NNE
USA 116 4.4 17:30:22 10° NNE 17:35:48 82° ESE 17:40:55 10° S
COSMO-SKYMED 1 3.5 17:34:01 10° NE 17:37:44 27° E 17:41:25 10° SSE
SMAP 3.0 17:34:34 10° SSE 17:39:13 81° ENE 17:43:53 10° N
USA 234 3.4 17:35:08 10° NE 17:41:42 78° NW 17:48:13 10° SW
CZ-4 R/B 4.4 17:41:55 10° SSE 17:46:01 65° ENE 17:50:09 10° N
BREEZE M DEB (TANK) 3.6 17:44:58 10° NW 17:48:02 35° NNE 17:53:28 15° E
SL-8 R/B 3.8 17:44:11 10° WSW 17:48:57 69° NNW 17:52:28 18° NE
Genesis I 3.1 17:47:05 10° NNW 17:51:01 65° NE 17:54:52 10° SE
NOSS 3-4 (A) 4.5 17:46:26 10° NNW 17:52:31 31° NE 17:57:34 15° E
Cosmos 1536 Rocket 3.7 17:50:01 10° S 17:54:28 83° W 17:58:59 10° N
Nadezhda 3 Rocket 4.1 17:49:56 10° SSE 17:55:54 53° E 18:01:59 10° NNE
Cosmos 1833 Rocket 3.1 17:52:21 10° N 17:57:39 40° ENE 18:02:54 10° SE
Cosmos 1025 Rocket 4.1 17:55:11 10° SE 17:58:41 24° E 17:59:27 23° ENE
NOSS 3-3 (A) 4.1 17:53:05 10° SW 17:59:16 79° NW 18:05:34 12° NNE
NOSS 3-3 (C) 4.1 17:53:11 10° SW 17:59:22 79° NW 18:05:39 12° NNE
Cosmos 2082 Rocket 2.4 17:54:57 10° NNW 18:00:27 49° ENE 18:05:55 10° SE
Cosmos 921 Rocket 3.4 17:57:03 10° S 18:01:02 41° E 18:03:30 21° NE
EP 1 4.1 17:59:25 10° SSW 18:02:02 66° SE 18:02:42 42° ENE
YAOGAN 1 3.2 17:58:44 10° S 18:02:59 59° W 18:07:17 10° NNW
Cosmos 1238 Rocket 3.9 18:00:28 10° SW 18:03:09 32° WNW 18:06:01 10° NNW
SPOT 3 Rocket 4.2 17:58:34 10° S 18:03:40 58° WSW 18:08:47 10° NNW
MSX 3.8 17:58:08 10° SSE 18:03:53 89° ENE 18:09:40 10° NNW
CZ-4 R/B 3.1 18:00:42 10° SSW 18:04:34 37° W 18:08:27 10° NNW
Meteor 2-21 Rocket 4.5 17:58:44 10° N 18:04:51 59° E 18:10:53 10° SSE
Cosmos 1975 3.0 18:01:30 10° NNW 18:05:33 73° W 18:09:34 10° S
GRACE-2 4.1 18:02:57 10° SSE 18:05:37 44° E 18:05:48 43° ENE
Cosmos 1743 3.1 18:02:18 10° N 18:06:00 40° ENE 18:09:38 10° SSE
GRACE-1 4.0 18:03:21 10° SSE 18:06:02 46° E 18:06:18 44° ENE
ATLAS 2AS CENTAUR R/B 3.9 18:00:12 10° NW 18:07:56 53° WSW 18:15:07 10° S
GEOS 3 Rocket 4.0 18:06:32 19° ESE 18:09:45 39° NE 18:14:30 10° NNW
COSMOS 2487 2.4 18:06:31 10° NNW 18:10:07 88° ENE 18:13:42 10° SSE
Cosmos 1500 3.3 18:06:52 10° N 18:10:42 79° W 18:14:32 10° S
Cosmos 1484 Rocket 2.5 18:07:41 10° SSE 18:11:25 74° ENE 18:15:09 10° N
CZ-2C R/B 3.5 18:07:26 10° S 18:12:15 48° W 18:17:12 10° NNW
MONITOR-E 4.4 18:10:12 10° S 18:13:22 74° WSW 18:16:35 10° NNW
Meteor 1-28 Rocket 3.6 18:15:53 38° E 18:16:19 39° E 18:19:53 10° SSE
Tiangong 1 0.8 18:16:38 10° WSW 18:19:39 76° SSE 18:19:54 69° ESE
Meteor 1-13 Rocket 4.2 18:14:25 10° S 18:20:04 77° E 18:25:54 10° NNE
SKYMED 2 3.5 18:21:59 12° NNE 18:25:58 87° W 18:30:17 10° SSW
IDEFIX/ARIANE 42P 4.2 18:23:59 10° SSW 18:28:43 35° W 18:33:28 10° NNW
FALCON 9 R/B 3.9 18:05:02 10° WSW 18:30:55 60° S 18:35:31 26° ESE
BREEZE-M R/B 4.3 18:22:10 10° WSW 18:32:22 62° NNW 18:34:45 33° NE
Delta 2 Rocket 4.3 18:28:58 10° WSW 18:32:28 35° S 18:33:18 31° SE
Meteor 2-4 Rocket 3.5 18:31:10 10° S 18:36:26 60° E 18:38:55 31° NNE
Okean 1-7 Rocket 3.6 18:32:03 10° S 18:36:33 81° W 18:39:56 18° N
Meteor 2-9 Rocket 4.1 18:32:34 10° N 18:37:55 55° ENE 18:43:07 10° SSE
Cosmos 1934 Rocket 3.9 18:41:21 10° N 18:47:33 71° E 18:53:48 10° SSE
Cosmos 1535 Rocket 4.4 18:44:53 10° N 18:51:14 87° W 18:57:26 10° S
NOSS 2-1 (D) 3.6 18:49:30 10° SW 18:53:17 64° NW 18:53:30 63° NNW
NOSS 2-1 (C) 3.5 18:50:09 10° SW 18:53:58 65° NW 18:54:09 64° NW
Meteor 2-8 Rocket 4.3 18:57:31 10° S 19:03:35 83° E 19:06:35 32° NNE
BREEZE M DEB (TANK) 3.2 19:03:16 10° WSW 19:08:45 49° WNW 19:08:45 49° WNW
NOSS 2-1 (E) 4.4 19:08:54 10° SW 19:12:13 44° WNW 19:12:13 44° WNW
Cosmos 2278 Rocket 4.5 19:15:43 10° W 19:19:35 19° NW 19:23:28 10° N
USA 234 4.4 19:22:16 27° N 19:24:06 31° NNW 19:29:42 10° W
Cosmos 1605 Rocket 3.9 19:20:50 10° N 19:27:10 83° W 19:33:21 10° S
CZ-3B DEB 4.0 19:23:28 10° WNW 19:28:52 38° N 19:31:38 33° NNE
Cosmos 2056 Rocket 4.1 19:27:41 10° SW 19:32:41 55° W 19:32:41 55° W
Cosmos 1833 Rocket 4.5 19:36:36 10° NW 19:41:23 29° WSW 19:46:08 10° SSW
NOSS 3-4 (A) 4.0 19:36:58 10° NW 19:43:58 68° WSW 19:45:08 59° SSW
NOSS 3-4 (C) 4.0 19:37:04 10° NW 19:44:04 69° WSW 19:45:08 61° SSW
Cosmos 2082 Rocket 4.3 19:39:45 10° NW 19:44:10 24° WSW 19:48:33 10° SSW
